Weather History for KTTF - June, 2014

Change the Weather History Date:

Sunday, June 1, 2014

  Actual Average Record
Temperature  
Mean Temperature 66 °F -  
Max Temperature 80 °F 77 °F 96 °F (1934)
Min Temperature 51 °F 55 °F 40 °F (1993)
Growing Degree Days 16 (Base 50)    
Moisture  
Dew Point 53 °F    
Average Humidity 63    
Maximum Humidity 94    
Minimum Humidity 34    
Precipitation  
Precipitation 0.00 in - - ()
Sea Level Pressure  
Sea Level Pressure 30.11 in    
Wind  
Wind Speed 5 mph (ESE)    
Max Wind Speed 13 mph    
Max Gust Speed 16 mph    
Visibility 10 miles    
Events      
Averages and records for this station are not official NWS values.
T = Trace of Precipitation, MM = Missing Value Source: NWS Daily Summary

Daily Weather History Graph

Daily Weather History Graph

Search for Another Location

Airport or City:

Trip Planner

Search our weather history database for the weather conditions in past years. The results will help you decide how hot, cold, wet, or windy it might be!

Date:

Astronomy

Jun. 01, 2014 Rise Set
Actual Time 6:00 AM EDT 9:02 PM EDT
Civil Twilight 5:27 AM EDT 9:36 PM EDT
Nautical Twilight 4:44 AM EDT 10:19 PM EDT
Astronomical Twilight 3:54 AM EDT 11:09 PM EDT
Moon 9:33 AM EDT (6/1) 11:55 PM EDT (6/1)
Length of Visible Light 16h 08m
Length of Day
15h 01m
Waxing Crescent, 14% of the Moon is Illuminated
Jun 1
Waxing Crescent
Jun 5
First Quarter
Jun 13
Full
Jun 19
Last Quarter
Jun 27
New

Hourly Weather History & Observations

Time (EDT) Temp. Heat Index Dew Point Humidity Pressure Visibility Wind Dir Wind Speed Gust Speed Precip Events Conditions
12:12 AM 57.2 °F - 48.2 °F 72% 30.19 in 10.0 mi East 5.8 mph - N/A   Clear
12:33 AM 57.2 °F - 48.2 °F 72% 30.19 in 10.0 mi East 6.9 mph - N/A   Clear
12:53 AM 59.0 °F - 48.2 °F 67% 30.19 in 10.0 mi East 4.6 mph - N/A   Clear
1:13 AM 57.2 °F - 48.2 °F 72% 30.19 in 10.0 mi East 4.6 mph - N/A   Clear
1:33 AM 57.2 °F - 50.0 °F 77% 30.19 in 10.0 mi East 4.6 mph - N/A   Clear
2:13 AM 55.4 °F - 48.2 °F 77% 30.19 in 10.0 mi Calm Calm - N/A   Clear
2:33 AM 55.4 °F - 48.2 °F 77% 30.18 in 10.0 mi Calm Calm - N/A   Clear
2:53 AM 53.6 °F - 48.2 °F 82% 30.18 in 10.0 mi North 4.6 mph - N/A   Clear
3:13 AM 51.8 °F - 48.2 °F 88% 30.17 in 10.0 mi Calm Calm - N/A   Clear
3:34 AM 51.8 °F - 48.2 °F 88% 30.16 in 10.0 mi Calm Calm - N/A   Clear
3:54 AM 51.8 °F - 48.2 °F 88% 30.16 in 10.0 mi Calm Calm - N/A   Clear
4:14 AM 51.8 °F - 48.2 °F 88% 30.16 in 10.0 mi Calm Calm - N/A   Clear
4:34 AM 51.8 °F - 48.2 °F 88% 30.16 in 10.0 mi Calm Calm - N/A   Clear
5:14 AM 51.8 °F - 48.2 °F 88% 30.16 in 10.0 mi Calm Calm - N/A   Clear
5:34 AM 51.8 °F - 48.2 °F 88% 30.16 in 10.0 mi Calm Calm - N/A   Clear
5:54 AM 51.8 °F - 48.2 °F 88% 30.16 in 10.0 mi Calm Calm - N/A   Clear
6:14 AM 51.8 °F - 48.2 °F 88% 30.16 in 10.0 mi Calm Calm - N/A   Clear
6:34 AM 51.8 °F - 48.2 °F 88% 30.16 in 10.0 mi Calm Calm - N/A   Clear
6:55 AM 51.8 °F - 50.0 °F 94% 30.16 in 10.0 mi Calm Calm - N/A   Clear
7:15 AM 53.6 °F - 51.8 °F 94% 30.16 in 10.0 mi Calm Calm - N/A   Clear
7:35 AM 55.4 °F - 51.8 °F 88% 30.17 in 10.0 mi Calm Calm - N/A   Clear
7:55 AM 60.8 °F - 55.4 °F 82% 30.16 in 10.0 mi Calm Calm - N/A   Clear
8:15 AM 64.4 °F - 57.2 °F 77% 30.16 in 10.0 mi Calm Calm - N/A   Clear
8:35 AM 68.0 °F - 57.2 °F 68% 30.16 in 10.0 mi South 3.5 mph - N/A   Clear
8:55 AM 71.6 °F - 57.2 °F 60% 30.16 in 10.0 mi SSW 4.6 mph - N/A   Clear
9:15 AM 73.4 °F - 55.4 °F 53% 30.16 in 10.0 mi South 4.6 mph - N/A   Clear
9:35 AM 73.4 °F - 53.6 °F 50% 30.16 in 10.0 mi South 9.2 mph - N/A   Clear
10:16 AM 77.0 °F - 53.6 °F 44% 30.15 in 10.0 mi SSW 6.9 mph - N/A   Clear
10:36 AM 75.2 °F - 57.2 °F 53% 30.15 in 10.0 mi SE 5.8 mph - N/A   Clear
10:56 AM 77.0 °F - 57.2 °F 50% 30.15 in 10.0 mi SSE 6.9 mph - N/A   Clear
11:16 AM 78.8 °F - 57.2 °F 47% 30.15 in 10.0 mi SE 6.9 mph - N/A   Scattered Clouds
11:36 AM 78.8 °F - 55.4 °F 44% 30.14 in 10.0 mi SSE 8.1 mph - N/A   Clear
11:56 AM 75.2 °F - 57.2 °F 53% 30.14 in 10.0 mi SSE 5.8 mph - N/A   Clear
12:11 PM 75.2 °F - 55.4 °F 50% 30.14 in 10.0 mi SSE 5.8 mph - N/A   Clear
12:31 PM 78.8 °F - 60.8 °F 54% 30.14 in 10.0 mi ESE 5.8 mph - N/A   Clear
12:52 PM 78.8 °F - 57.2 °F 47% 30.14 in 10.0 mi SSE 3.5 mph - N/A   Clear
1:12 PM 78.8 °F - 55.4 °F 44% 30.13 in 10.0 mi South 3.5 mph - N/A   Clear
1:32 PM 78.8 °F - 60.8 °F 54% 30.13 in 10.0 mi SE 5.8 mph - N/A   Clear
1:52 PM 78.8 °F - 59.0 °F 51% 30.12 in 10.0 mi East 6.9 mph - N/A   Clear
2:12 PM 80.6 °F 80.5 °F 55.4 °F 42% 30.12 in 10.0 mi SE 5.8 mph - N/A   Clear
2:32 PM 80.6 °F 80.5 °F 55.4 °F 42% 30.11 in 10.0 mi ESE 6.9 mph - N/A   Clear
2:52 PM 80.6 °F 80.5 °F 55.4 °F 42% 30.09 in 10.0 mi ENE 9.2 mph - N/A   Clear
3:12 PM 80.6 °F 80.5 °F 55.4 °F 42% 30.09 in 10.0 mi East 10.4 mph - N/A   Clear
3:32 PM 80.6 °F 80.5 °F 55.4 °F 42% 30.08 in 10.0 mi ESE 10.4 mph - N/A   Clear
3:52 PM 80.6 °F 80.3 °F 53.6 °F 39% 30.08 in 10.0 mi SE 9.2 mph - N/A   Clear
4:12 PM 80.6 °F - 51.8 °F 37% 30.07 in 10.0 mi ESE 11.5 mph 16.1 mph N/A   Clear
4:33 PM 80.6 °F 80.3 °F 53.6 °F 39% 30.06 in 10.0 mi ESE 8.1 mph - N/A   Clear
4:53 PM 80.6 °F 80.3 °F 53.6 °F 39% 30.05 in 10.0 mi ESE 9.2 mph - N/A   Clear
5:13 PM 78.8 °F - 51.8 °F 39% 30.04 in 10.0 mi ESE 10.4 mph - N/A   Clear
5:33 PM 78.8 °F - 48.2 °F 34% 30.04 in 10.0 mi ESE 12.7 mph 16.1 mph N/A   Clear
5:53 PM 78.8 °F - 48.2 °F 34% 30.03 in 10.0 mi East 12.7 mph - N/A   Clear
6:13 PM 78.8 °F - 48.2 °F 34% 30.02 in 10.0 mi ESE 8.1 mph - N/A   Clear
6:33 PM 77.0 °F - 48.2 °F 36% 30.01 in 10.0 mi ESE 10.4 mph - N/A   Clear
6:53 PM 75.2 °F - 48.2 °F 38% 30.01 in 10.0 mi ESE 9.2 mph - N/A   Clear
7:13 PM 75.2 °F - 48.2 °F 38% 30.01 in 10.0 mi ESE 9.2 mph - N/A   Clear
7:34 PM 73.4 °F - 51.8 °F 47% 30.01 in 10.0 mi ESE 10.4 mph - N/A   Clear
7:54 PM 73.4 °F - 53.6 °F 50% 30.01 in 10.0 mi East 8.1 mph 16.1 mph N/A   Clear
8:14 PM 71.6 °F - 55.4 °F 57% 30.01 in 10.0 mi ESE 6.9 mph - N/A   Clear
8:34 PM 69.8 °F - 57.2 °F 64% 30.01 in 10.0 mi ESE 6.9 mph - N/A   Clear
8:54 PM 69.8 °F - 59.0 °F 68% 30.01 in 10.0 mi ESE 6.9 mph - N/A   Clear
9:14 PM 68.0 °F - 59.0 °F 73% 30.01 in 10.0 mi ESE 5.8 mph - N/A   Clear
9:34 PM 66.2 °F - 59.0 °F 78% 30.01 in 10.0 mi ESE 3.5 mph - N/A   Clear
9:54 PM 66.2 °F - 59.0 °F 78% 30.01 in 10.0 mi East 4.6 mph - N/A   Clear
10:14 PM 66.2 °F - 59.0 °F 78% 30.01 in 10.0 mi ESE 4.6 mph - N/A   Clear
10:35 PM 66.2 °F - 60.8 °F 83% 30.01 in 10.0 mi East 4.6 mph - N/A   Clear
11:15 PM 66.2 °F - 60.8 °F 83% 30.01 in 10.0 mi ESE 4.6 mph - N/A   Clear
11:35 PM 64.4 °F - 60.8 °F 88% 30.01 in 10.0 mi ESE 3.5 mph - N/A   Clear
11:55 PM 64.4 °F - 60.8 °F 88% 30.01 in 10.0 mi Calm Calm - N/A   Clear